Regional Weather Roundup
Issued by NWS

Home | Current Version | Previous Version | Graphics & Text | Print | Product List | Glossary On
Versions: 1 2 3 4 5 6 7 8 9 10 11 12 13 14 15 16 17 18 19 20 21 22 23 24 25 26 27 28 29 30 31 32 33 34 35 36 37 38 39 40 41 42 43 44 45 46 47 48 49 50
000
ASUS43 KFSD 250802
RWRSD

WEATHER ROUNDUP FOR SOUTH DAKOTA
NATIONAL WEATHER SERVICE SIOUX FALLS SD
300 AM CDT SAT MAR 25 2017

NOTE: "FAIR" INDICATES FEW OR NO CLOUDS BELOW 12,000 FEET WITH NO
SIGNIFICANT WEATHER AND/OR OBSTRUCTIONS TO VISIBILITY.


SDZ001>005-009-010-012>017-250900-
NORTHWEST AND NORTH CENTRAL SOUTH DAKOTA

CITY           SKY/WX    TMP DP  RH WIND       PRES   REMARKS
BUFFALO          N/A     41  32  70 SE20      29.85F
FAITH            N/A     34  32  92 SE18      30.02F WCI  23
MOBRIDGE       CLOUDY    31  26  82 E10       30.09F WCI  22
$$

SDZ012>016-024>037-041>051-057-063-072>074-250900-
SOUTHWEST AND SOUTH CENTRAL SOUTH DAKOTA

CITY           SKY/WX    TMP DP  RH WIND       PRES   REMARKS
RAPID CTY ARPT CLOUDY    36  28  73 S12       30.00F
PIERRE         CLOUDY    28  26  92 E6        30.09F WCI  22
CUSTER         CLOUDY    36  24  62 SW7       30.02F
ELLSWORTH AFB  CLOUDY    41  30  63 S13       29.98F
PHILIP         CLOUDY    29  27  92 E7        30.06F WCI  22
PINE RIDGE     CLOUDY    39  30  70 CALM      30.04F
SPEARFISH      FAIR      48  27  43 S10       29.92F
WINNER         FOG       27  25  92 SE5       30.10F VSB 1/4 WCI  22
$$

SDZ004>011-016>023-039-040-250900-
NORTHEAST SOUTH DAKOTA

CITY           SKY/WX    TMP DP  RH WIND       PRES   REMARKS
ABERDEEN       CLOUDY    29  25  85 NE6       30.16F WCI  23
WATERTOWN      CLOUDY    33  30  88 E12       30.13F WCI  24
BROOKINGS      CLOUDY    33  30  88 NE13      30.11F WCI  24
SISSETON         N/A     26  25  96 N6        30.18F WCI  19
$$

SDZ017-020-022-023-036>040-048>070-250900-
SOUTHEAST SOUTH DAKOTA

CITY           SKY/WX    TMP DP  RH WIND       PRES   REMARKS
SIOUX FALLS    CLOUDY    36  34  92 NE16      30.10F FOG
HURON          CLOUDY    38  33  82 NE6       30.14F
CHAMBERLAIN    CLOUDY    36  35  96 NE3       30.12F
MITCHELL       CLOUDY    37  33  85 NE12      30.14S
YANKTON        CLOUDY    36  34  93 N9        30.11S
$$

ABBREVIATIONS USED IN REMARKS
   TC - TEMPERATURE IN CELSIUS
  WCI - WIND CHILL INDEX
   HX - HEAT INDEX
  VSB - VISIBILITY





USA.gov is the U.S. government's official web portal to all federal, state and local government web resources and services.